| time (UTC) | temp C | wind direction | speed KPH | gust KPH | rain 1hr cm | rain 24hr cm | rain mn cm | humidity % | barometer mb |
| 20260504215259 | 20 | 179 | 0.0 | 1.6 | 0.00 | 0.00 | 0.00 | 74 | 1010.1 |
| 20260504215202 | 20 | 179 | 0.0 | 1.6 | 0.00 | 0.00 | 0.00 | 74 | 1010.1 |
| 20260504215105 | 20 | 179 | 0.0 | 1.6 | 0.00 | 0.00 | 0.00 | 74 | 1010.1 |
| 20260504215018 | 20 | 179 | 0.0 | 1.6 | 0.00 | 0.00 | 0.00 | 74 | 1010.2 |
| 20260504214802 | 20 | 236 | 0.0 | 1.6 | 0.00 | 0.00 | 0.00 | 73 | 1010.1 |
| 20260504214709 | 20 | 278 | 0.0 | 1.6 | 0.00 | 0.00 | 0.00 | 73 | 1010.2 |
| 20260504214612 | 20 | 278 | 0.0 | 0.0 | 0.00 | 0.00 | 0.00 | 73 | 1010.2 |
| 20260504214506 | 20 | 278 | 0.0 | 0.0 | 0.00 | 0.00 | 0.00 | 73 | 1010.1 |
| 20260504214401 | 20 | 278 | 0.0 | 0.0 | 0.00 | 0.00 | 0.00 | 73 | 1010.1 |
| 20260504214258 | 20 | 277 | 0.0 | 1.6 | 0.00 | 0.00 | 0.00 | 73 | 1010.1 |
| 20260504214208 | 21 | 278 | 0.0 | 1.6 | 0.00 | 0.00 | 0.00 | 73 | 1010.0 |
| 20260504214007 | 21 | 278 | 0.0 | 4.8 | 0.00 | 0.00 | 0.00 | 72 | 1010.0 |
| 20260504213904 | 21 | 278 | 0.0 | 4.8 | 0.00 | 0.00 | 0.00 | 72 | 1010.0 |
| 20260504213803 | 21 | 278 | 0.0 | 4.8 | 0.00 | 0.00 | 0.00 | 72 | 1010.0 |
| 20260504213706 | 21 | 251 | 0.0 | 4.8 | 0.00 | 0.00 | 0.00 | 72 | 1010.0 |
| 20260504213609 | 21 | 252 | 0.0 | 4.8 | 0.00 | 0.00 | 0.00 | 72 | 1010.1 |
| 20260504213518 | 21 | 251 | 0.0 | 4.8 | 0.00 | 0.00 | 0.00 | 72 | 1010.1 |
| 20260504213402 | 21 | 217 | 0.0 | 4.8 | 0.00 | 0.00 | 0.00 | 72 | 1010.0 |
| 20260504213304 | 21 | 217 | 0.0 | 4.8 | 0.00 | 0.00 | 0.00 | 72 | 1010.0 |
| 20260504213204 | 21 | 217 | 1.6 | 4.8 | 0.00 | 0.00 | 0.00 | 72 | 1010.1 |
| 20260504213007 | 21 | 222 | 3.2 | 4.8 | 0.00 | 0.00 | 0.00 | 71 | 1010.1 |
| 20260504212905 | 21 | 180 | 1.6 | 4.8 | 0.00 | 0.00 | 0.00 | 71 | 1010.2 |
| 20260504212803 | 21 | 194 | 0.0 | 0.0 | 0.00 | 0.00 | 0.00 | 71 | 1010.2 |
| 20260504212700 | 21 | 190 | 0.0 | 0.0 | 0.00 | 0.00 | 0.00 | 71 | 1010.2 |
| 20260504212606 | 21 | 182 | 0.0 | 0.0 | 0.00 | 0.00 | 0.00 | 70 | 1010.1 |
| 20260504212504 | 21 | 167 | 0.0 | 0.0 | 0.00 | 0.00 | 0.00 | 70 | 1010.2 |
| 20260504212359 | 21 | 162 | 0.0 | 0.0 | 0.00 | 0.00 | 0.00 | 70 | 1010.2 |
| 20260504212308 | 21 | 163 | 0.0 | 0.0 | 0.00 | 0.00 | 0.00 | 70 | 1010.2 |
| 20260504212201 | 21 | 178 | 0.0 | 0.0 | 0.00 | 0.00 | 0.00 | 70 | 1010.1 |
| 20260504212104 | 21 | 190 | 0.0 | 0.0 | 0.00 | 0.00 | 0.00 | 70 | 1010.2 |
| 20260504212013 | 21 | 175 | 0.0 | 0.0 | 0.00 | 0.00 | 0.00 | 70 | 1010.1 |
| 20260504211904 | 21 | 175 | 0.0 | 0.0 | 0.00 | 0.00 | 0.00 | 70 | 1010.1 |
| 20260504211758 | 21 | 175 | 0.0 | 0.0 | 0.00 | 0.00 | 0.00 | 70 | 1010.1 |
| 20260504211659 | 21 | 175 | 0.0 | 0.0 | 0.00 | 0.00 | 0.00 | 70 | 1010.1 |
| 20260504211601 | 21 | 175 | 0.0 | 0.0 | 0.00 | 0.00 | 0.00 | 70 | 1010.1 |
| 20260504211300 | 21 | 194 | 0.0 | 0.0 | 0.00 | 0.00 | 0.00 | 69 | 1010.1 |
| 20260504211200 | 21 | 188 | 0.0 | 0.0 | 0.00 | 0.00 | 0.00 | 69 | 1010.1 |
| 20260504211102 | 21 | 188 | 0.0 | 0.0 | 0.00 | 0.00 | 0.00 | 69 | 1010.0 |
| 20260504210905 | 21 | 169 | 0.0 | 0.0 | 0.00 | 0.00 | 0.00 | 69 | 1010.1 |
| 20260504210800 | 21 | 169 | 0.0 | 0.0 | 0.00 | 0.00 | 0.00 | 69 | 1010.1 |
| 20260504210700 | 21 | 169 | 0.0 | 0.0 | 0.00 | 0.00 | 0.00 | 69 | 1010.0 |
| 20260504210602 | 21 | 169 | 0.0 | 0.0 | 0.00 | 0.00 | 0.00 | 69 | 1010.0 |
| 20260504210305 | 21 | 170 | 0.0 | 0.0 | 0.00 | 0.00 | 0.00 | 69 | 1010.1 |
| 20260504210201 | 21 | 171 | 0.0 | 3.2 | 0.00 | 0.00 | 0.00 | 69 | 1010.1 |
| 20260504210014 | 21 | 168 | 0.0 | 3.2 | 0.00 | 0.00 | 0.00 | 69 | 1010.1 |
| 20260504205759 | 21 | 168 | 0.0 | 4.8 | 0.00 | 0.00 | 0.00 | 69 | 1010.1 |
| 20260504205704 | 21 | 168 | 0.0 | 4.8 | 0.00 | 0.00 | 0.00 | 69 | 1010.1 |
| 20260504205601 | 21 | 168 | 0.0 | 4.8 | 0.00 | 0.00 | 0.00 | 69 | 1010.0 |
| 20260504205508 | 21 | 168 | 0.0 | 4.8 | 0.00 | 0.00 | 0.00 | 69 | 1010.1 |
| 20260504205400 | 21 | 163 | 1.6 | 4.8 | 0.00 | 0.00 | 0.00 | 69 | 1010.0 |
| 20260504205304 | 21 | 167 | 1.6 | 4.8 | 0.00 | 0.00 | 0.00 | 69 | 1010.0 |
| 20260504205201 | 21 | 163 | 1.6 | 4.8 | 0.00 | 0.00 | 0.00 | 69 | 1010.0 |
| 20260504204904 | 21 | 157 | 0.0 | 3.2 | 0.00 | 0.00 | 0.00 | 69 | 1009.9 |
| 20260504204805 | 21 | 136 | 0.0 | 3.2 | 0.00 | 0.00 | 0.00 | 69 | 1009.9 |
| 20260504204704 | 21 | 117 | 1.6 | 3.2 | 0.00 | 0.00 | 0.00 | 69 | 1009.9 |
| 20260504204600 | 21 | 115 | 1.6 | 3.2 | 0.00 | 0.00 | 0.00 | 69 | 1009.9 |
| 20260504204503 | 21 | 101 | 0.0 | 3.2 | 0.00 | 0.00 | 0.00 | 69 | 1009.9 |
| 20260504204401 | 21 | 100 | 0.0 | 3.2 | 0.00 | 0.00 | 0.00 | 69 | 1010.0 |
| 20260504204304 | 21 | 107 | 0.0 | 4.8 | 0.00 | 0.00 | 0.00 | 69 | 1009.9 |
| 20260504204200 | 21 | 149 | 0.0 | 6.4 | 0.00 | 0.00 | 0.00 | 69 | 1010.0 |
| 20260504204103 | 21 | 148 | 0.0 | 6.4 | 0.00 | 0.00 | 0.00 | 69 | 1010.0 |
| 20260504204005 | 21 | 60 | 0.0 | 6.4 | 0.00 | 0.00 | 0.00 | 69 | 1010.0 |
| 20260504203900 | 21 | 60 | 0.0 | 8.0 | 0.00 | 0.00 | 0.00 | 69 | 1010.0 |
| 20260504203800 | 21 | 61 | 0.0 | 8.0 | 0.00 | 0.00 | 0.00 | 69 | 1010.0 |
| 20260504203702 | 21 | 78 | 1.6 | 8.0 | 0.00 | 0.00 | 0.00 | 69 | 1010.0 |
| 20260504203601 | 21 | 59 | 3.2 | 8.0 | 0.00 | 0.00 | 0.00 | 69 | 1010.0 |
| 20260504203503 | 21 | 75 | 3.2 | 8.0 | 0.00 | 0.00 | 0.00 | 69 | 1010.0 |
| 20260504203400 | 21 | 70 | 3.2 | 8.0 | 0.00 | 0.00 | 0.00 | 69 | 1010.0 |
| 20260504203301 | 21 | 49 | 3.2 | 8.0 | 0.00 | 0.00 | 0.00 | 69 | 1009.9 |
| 20260504203159 | 21 | 74 | 3.2 | 8.0 | 0.00 | 0.00 | 0.00 | 69 | 1009.9 |
| 20260504203104 | 21 | 335 | 3.2 | 8.0 | 0.00 | 0.00 | 0.00 | 69 | 1010.0 |
| 20260504203006 | 21 | 67 | 1.6 | 8.0 | 0.00 | 0.00 | 0.00 | 69 | 1009.9 |
| 20260504202904 | 21 | 73 | 1.6 | 8.0 | 0.00 | 0.00 | 0.00 | 69 | 1009.9 |
| 20260504202802 | 21 | 69 | 3.2 | 8.0 | 0.00 | 0.00 | 0.00 | 69 | 1009.8 |
| 20260504202701 | 21 | 82 | 4.8 | 8.0 | 0.00 | 0.00 | 0.00 | 69 | 1009.8 |
| 20260504202600 | 21 | 77 | 4.8 | 8.0 | 0.00 | 0.00 | 0.00 | 69 | 1009.8 |
| 20260504202402 | 21 | 63 | 1.6 | 6.4 | 0.00 | 0.00 | 0.00 | 69 | 1009.8 |
| 20260504202301 | 21 | 70 | 1.6 | 4.8 | 0.00 | 0.00 | 0.00 | 69 | 1009.8 |
| 20260504202201 | 21 | 67 | 1.6 | 4.8 | 0.00 | 0.00 | 0.00 | 69 | 1009.8 |
| 20260504202101 | 21 | 65 | 1.6 | 4.8 | 0.00 | 0.00 | 0.00 | 69 | 1009.8 |
| 20260504202007 | 21 | 63 | 0.0 | 4.8 | 0.00 | 0.00 | 0.00 | 69 | 1009.8 |
| 20260504201900 | 21 | 88 | 0.0 | 4.8 | 0.00 | 0.00 | 0.00 | 69 | 1009.8 |
| 20260504201801 | 21 | 59 | 1.6 | 4.8 | 0.00 | 0.00 | 0.00 | 68 | 1009.8 |
| 20260504201702 | 21 | 91 | 1.6 | 4.8 | 0.00 | 0.00 | 0.00 | 69 | 1009.8 |
| 20260504201600 | 21 | 53 | 0.0 | 4.8 | 0.00 | 0.00 | 0.00 | 69 | 1009.8 |
| 20260504201504 | 21 | 13 | 1.6 | 4.8 | 0.00 | 0.00 | 0.00 | 69 | 1009.8 |
| 20260504201301 | 21 | 43 | 0.0 | 1.6 | 0.00 | 0.00 | 0.00 | 69 | 1009.7 |
| 20260504201202 | 21 | 338 | 0.0 | 0.0 | 0.00 | 0.00 | 0.00 | 69 | 1009.7 |
| 20260504201101 | 21 | 338 | 0.0 | 0.0 | 0.00 | 0.00 | 0.00 | 69 | 1009.7 |
| 20260504201006 | 21 | 338 | 0.0 | 0.0 | 0.00 | 0.00 | 0.00 | 69 | 1009.7 |
| 20260504200901 | 21 | 338 | 0.0 | 0.0 | 0.00 | 0.00 | 0.00 | 69 | 1009.6 |
| 20260504200802 | 21 | 338 | 0.0 | 0.0 | 0.00 | 0.00 | 0.00 | 69 | 1009.7 |
| 20260504200701 | 21 | 338 | 0.0 | 0.0 | 0.00 | 0.00 | 0.00 | 68 | 1009.6 |
| 20260504200601 | 21 | 338 | 0.0 | 0.0 | 0.00 | 0.00 | 0.00 | 68 | 1009.6 |
| 20260504200505 | 21 | 338 | 0.0 | 1.6 | 0.00 | 0.00 | 0.00 | 68 | 1009.7 |
| 20260504200400 | 21 | 338 | 0.0 | 3.2 | 0.00 | 0.00 | 0.00 | 68 | 1009.6 |
| 20260504200300 | 21 | 338 | 0.0 | 3.2 | 0.00 | 0.00 | 0.00 | 68 | 1009.6 |
| 20260504200200 | 21 | 338 | 0.0 | 3.2 | 0.00 | 0.00 | 0.00 | 68 | 1009.6 |
| 20260504200100 | 21 | 338 | 0.0 | 3.2 | 0.00 | 0.00 | 0.00 | 68 | 1009.6 |
| 20260504200007 | 21 | 338 | 0.0 | 3.2 | 0.00 | 0.00 | 0.00 | 68 | 1009.6 |
| 20260504195903 | 21 | 338 | 0.0 | 3.2 | 0.00 | 0.00 | 0.00 | 68 | 1009.6 |
| 20260504195802 | 21 | 333 | 0.0 | 3.2 | 0.00 | 0.00 | 0.00 | 68 | 1009.6 |
| 20260504195702 | 21 | 333 | 1.6 | 3.2 | 0.00 | 0.00 | 0.00 | 68 | 1009.6 |
| 20260504195603 | 21 | 333 | 1.6 | 3.2 | 0.00 | 0.00 | 0.00 | 68 | 1009.6 |
| 20260504195505 | 21 | 325 | 0.0 | 3.2 | 0.00 | 0.00 | 0.00 | 68 | 1009.7 |
| 20260504195402 | 21 | 5 | 0.0 | 1.6 | 0.00 | 0.00 | 0.00 | 67 | 1009.7 |
| 20260504195304 | 21 | 5 | 0.0 | 1.6 | 0.00 | 0.00 | 0.00 | 67 | 1009.7 |
| 20260504195205 | 21 | 91 | 0.0 | 3.2 | 0.00 | 0.00 | 0.00 | 67 | 1009.6 |
| 20260504195102 | 21 | 128 | 0.0 | 3.2 | 0.00 | 0.00 | 0.00 | 67 | 1009.6 |
| 20260504195005 | 21 | 128 | 0.0 | 3.2 | 0.00 | 0.00 | 0.00 | 67 | 1009.6 |
| 20260504194902 | 21 | 128 | 0.0 | 3.2 | 0.00 | 0.00 | 0.00 | 67 | 1009.6 |
| 20260504194802 | 21 | 128 | 0.0 | 3.2 | 0.00 | 0.00 | 0.00 | 67 | 1009.7 |
| 20260504194604 | 21 | 128 | 0.0 | 3.2 | 0.00 | 0.00 | 0.00 | 67 | 1009.6 |
| 20260504194504 | 21 | 128 | 0.0 | 4.8 | 0.00 | 0.00 | 0.00 | 67 | 1009.6 |
| 20260504194302 | 21 | 127 | 0.0 | 4.8 | 0.00 | 0.00 | 0.00 | 67 | 1009.6 |
| 20260504194204 | 21 | 154 | 0.0 | 4.8 | 0.00 | 0.00 | 0.00 | 67 | 1009.6 |
| 20260504194104 | 21 | 134 | 1.6 | 4.8 | 0.00 | 0.00 | 0.00 | 67 | 1009.6 |
| 20260504194009 | 21 | 133 | 0.0 | 4.8 | 0.00 | 0.00 | 0.00 | 67 | 1009.6 |
| 20260504193902 | 21 | 150 | 1.6 | 4.8 | 0.00 | 0.00 | 0.00 | 67 | 1009.6 |
| 20260504193808 | 21 | 135 | 1.6 | 4.8 | 0.00 | 0.00 | 0.00 | 67 | 1009.5 |
| 20260504193703 | 21 | 144 | 3.2 | 4.8 | 0.00 | 0.00 | 0.00 | 68 | 1009.5 |
| 20260504193602 | 21 | 136 | 1.6 | 4.8 | 0.00 | 0.00 | 0.00 | 68 | 1009.6 |
| 20260504193104 | 21 | 136 | 0.0 | 3.2 | 0.00 | 0.00 | 0.00 | 67 | 1009.5 |
| 20260504193008 | 21 | 92 | 0.0 | 3.2 | 0.00 | 0.00 | 0.00 | 67 | 1009.5 |
| 20260504192902 | 21 | 126 | 1.6 | 3.2 | 0.00 | 0.00 | 0.00 | 67 | 1009.6 |
| 20260504192803 | 21 | 134 | 1.6 | 3.2 | 0.00 | 0.00 | 0.00 | 68 | 1009.5 |
| 20260504192702 | 21 | 144 | 0.0 | 1.6 | 0.00 | 0.00 | 0.00 | 68 | 1009.5 |
| 20260504192601 | 21 | 134 | 0.0 | 0.0 | 0.00 | 0.00 | 0.00 | 68 | 1009.5 |
| 20260504192506 | 21 | 134 | 0.0 | 0.0 | 0.00 | 0.00 | 0.00 | 68 | 1009.5 |
| 20260504192304 | 21 | 119 | 0.0 | 0.0 | 0.00 | 0.00 | 0.00 | 68 | 1009.4 |
| 20260504192202 | 21 | 119 | 0.0 | 0.0 | 0.00 | 0.00 | 0.00 | 68 | 1009.4 |
| 20260504192102 | 21 | 260 | 0.0 | 0.0 | 0.00 | 0.00 | 0.00 | 68 | 1009.4 |
| 20260504192007 | 21 | 260 | 0.0 | 0.0 | 0.00 | 0.00 | 0.00 | 68 | 1009.5 |
| 20260504191803 | 21 | 260 | 0.0 | 0.0 | 0.00 | 0.00 | 0.00 | 68 | 1009.4 |
| 20260504191703 | 21 | 260 | 0.0 | 0.0 | 0.00 | 0.00 | 0.00 | 68 | 1009.5 |
| 20260504191602 | 21 | 260 | 0.0 | 1.6 | 0.00 | 0.00 | 0.00 | 67 | 1009.5 |
| 20260504191504 | 21 | 260 | 0.0 | 1.6 | 0.00 | 0.00 | 0.00 | 67 | 1009.5 |
| 20260504191402 | 21 | 260 | 0.0 | 1.6 | 0.00 | 0.00 | 0.00 | 67 | 1009.5 |
| 20260504191303 | 21 | 260 | 0.0 | 1.6 | 0.00 | 0.00 | 0.00 | 67 | 1009.5 |
| 20260504191204 | 21 | 260 | 0.0 | 1.6 | 0.00 | 0.00 | 0.00 | 67 | 1009.5 |
| 20260504191102 | 21 | 260 | 0.0 | 1.6 | 0.00 | 0.00 | 0.00 | 67 | 1009.5 |
| 20260504190905 | 21 | 260 | 0.0 | 3.2 | 0.00 | 0.00 | 0.00 | 67 | 1009.6 |
| 20260504190803 | 21 | 260 | 0.0 | 3.2 | 0.00 | 0.00 | 0.00 | 67 | 1009.6 |
| 20260504190602 | 21 | 152 | 0.0 | 3.2 | 0.00 | 0.00 | 0.00 | 67 | 1009.6 |
| 20260504190504 | 21 | 152 | 0.0 | 3.2 | 0.00 | 0.00 | 0.00 | 67 | 1009.6 |
| 20260504190402 | 21 | 152 | 0.0 | 3.2 | 0.00 | 0.00 | 0.00 | 67 | 1009.6 |
| 20260504190304 | 21 | 152 | 0.0 | 3.2 | 0.00 | 0.00 | 0.00 | 67 | 1009.6 |
| 20260504190204 | 21 | 152 | 1.6 | 3.2 | 0.00 | 0.00 | 0.00 | 67 | 1009.6 |
| 20260504190106 | 21 | 147 | 1.6 | 3.2 | 0.00 | 0.00 | 0.00 | 67 | 1009.6 |
| 20260504185904 | 21 | 165 | 0.0 | 1.6 | 0.00 | 0.00 | 0.00 | 67 | 1009.6 |
| 20260504185702 | 21 | 98 | 0.0 | 1.6 | 0.00 | 0.00 | 0.00 | 66 | 1009.7 |
| 20260504185605 | 21 | 208 | 0.0 | 0.0 | 0.00 | 0.00 | 0.00 | 66 | 1009.7 |
| 20260504185507 | 21 | 208 | 0.0 | 0.0 | 0.00 | 0.00 | 0.00 | 66 | 1009.7 |
| 20260504185403 | 21 | 208 | 0.0 | 0.0 | 0.00 | 0.00 | 0.00 | 66 | 1009.7 |
| 20260504185304 | 21 | 208 | 0.0 | 0.0 | 0.00 | 0.00 | 0.00 | 66 | 1009.7 |
| 20260504185202 | 21 | 208 | 0.0 | 0.0 | 0.00 | 0.00 | 0.00 | 66 | 1009.7 |
| 20260504185007 | 21 | 208 | 0.0 | 0.0 | 0.00 | 0.00 | 0.00 | 66 | 1009.7 |
| 20260504184804 | 21 | 208 | 0.0 | 0.0 | 0.00 | 0.00 | 0.00 | 66 | 1009.8 |
| 20260504184704 | 21 | 208 | 0.0 | 0.0 | 0.00 | 0.00 | 0.00 | 66 | 1009.7 |
| 20260504184604 | 21 | 208 | 0.0 | 0.0 | 0.00 | 0.00 | 0.00 | 66 | 1009.7 |
| 20260504184506 | 21 | 208 | 0.0 | 0.0 | 0.00 | 0.00 | 0.00 | 66 | 1009.8 |
| 20260504184404 | 21 | 208 | 0.0 | 0.0 | 0.00 | 0.00 | 0.00 | 66 | 1009.7 |
| 20260504184305 | 21 | 208 | 0.0 | 0.0 | 0.00 | 0.00 | 0.00 | 66 | 1009.7 |
| 20260504184203 | 21 | 208 | 0.0 | 0.0 | 0.00 | 0.00 | 0.00 | 66 | 1009.7 |
| 20260504184007 | 21 | 208 | 0.0 | 1.6 | 0.00 | 0.00 | 0.00 | 66 | 1009.7 |
| 20260504183904 | 21 | 208 | 0.0 | 1.6 | 0.00 | 0.00 | 0.00 | 66 | 1009.8 |
| 20260504183806 | 21 | 208 | 0.0 | 1.6 | 0.00 | 0.00 | 0.00 | 66 | 1009.8 |
| 20260504183704 | 21 | 208 | 0.0 | 1.6 | 0.00 | 0.00 | 0.00 | 66 | 1009.7 |
| 20260504183604 | 21 | 208 | 0.0 | 1.6 | 0.00 | 0.00 | 0.00 | 66 | 1009.7 |
| 20260504183505 | 21 | 208 | 0.0 | 1.6 | 0.00 | 0.00 | 0.00 | 66 | 1009.7 |
| 20260504183406 | 21 | 208 | 0.0 | 1.6 | 0.00 | 0.00 | 0.00 | 66 | 1009.7 |
| 20260504183303 | 21 | 208 | 0.0 | 1.6 | 0.00 | 0.00 | 0.00 | 66 | 1009.7 |
| 20260504183104 | 21 | 208 | 0.0 | 1.6 | 0.00 | 0.00 | 0.00 | 66 | 1009.6 |
| 20260504183015 | 21 | 208 | 0.0 | 1.6 | 0.00 | 0.00 | 0.00 | 66 | 1009.6 |
| 20260504182907 | 21 | 208 | 1.6 | 1.6 | 0.00 | 0.00 | 0.00 | 66 | 1009.6 |
| 20260504182802 | 21 | 208 | 0.0 | 1.6 | 0.00 | 0.00 | 0.00 | 65 | 1009.5 |
| 20260504182705 | 21 | 208 | 0.0 | 1.6 | 0.00 | 0.00 | 0.00 | 65 | 1009.5 |
| 20260504182608 | 21 | 208 | 0.0 | 1.6 | 0.00 | 0.00 | 0.00 | 65 | 1009.5 |
| 20260504182404 | 21 | 208 | 0.0 | 3.2 | 0.00 | 0.00 | 0.00 | 65 | 1009.4 |
| 20260504182304 | 21 | 208 | 0.0 | 4.8 | 0.00 | 0.00 | 0.00 | 65 | 1009.4 |
| 20260504182204 | 21 | 208 | 0.0 | 4.8 | 0.00 | 0.00 | 0.00 | 65 | 1009.4 |
| 20260504182103 | 21 | 208 | 0.0 | 4.8 | 0.00 | 0.00 | 0.00 | 66 | 1009.3 |
| 20260504182008 | 21 | 208 | 0.0 | 4.8 | 0.00 | 0.00 | 0.00 | 65 | 1009.4 |
| 20260504181805 | 21 | 208 | 0.0 | 4.8 | 0.00 | 0.00 | 0.00 | 65 | 1009.4 |
| 20260504181704 | 21 | 263 | 1.6 | 4.8 | 0.00 | 0.00 | 0.00 | 65 | 1009.4 |
| 20260504181605 | 21 | 209 | 1.6 | 4.8 | 0.00 | 0.00 | 0.00 | 65 | 1009.4 |
| 20260504181207 | 21 | 245 | 1.6 | 6.4 | 0.00 | 0.00 | 0.00 | 65 | 1009.3 |
| 20260504181104 | 21 | 232 | 0.0 | 6.4 | 0.00 | 0.00 | 0.00 | 65 | 1009.3 |
| 20260504180903 | 21 | 213 | 1.6 | 6.4 | 0.00 | 0.00 | 0.00 | 65 | 1009.3 |
| 20260504180804 | 21 | 221 | 1.6 | 6.4 | 0.00 | 0.00 | 0.00 | 65 | 1009.4 |
| 20260504180704 | 21 | 211 | 1.6 | 6.4 | 0.00 | 0.00 | 0.00 | 65 | 1009.3 |
| 20260504180605 | 21 | 227 | 3.2 | 6.4 | 0.00 | 0.00 | 0.00 | 65 | 1009.3 |
| 20260504180507 | 21 | 242 | 4.8 | 6.4 | 0.00 | 0.00 | 0.00 | 65 | 1009.3 |
| 20260504180304 | 21 | 256 | 1.6 | 4.8 | 0.00 | 0.00 | 0.00 | 65 | 1009.2 |
| 20260504180205 | 21 | 213 | 1.6 | 4.8 | 0.00 | 0.00 | 0.00 | 64 | 1009.1 |
| 20260504180103 | 21 | 213 | 3.2 | 4.8 | 0.00 | 0.00 | 0.00 | 64 | 1009.1 |
| 20260504175908 | 21 | 196 | 1.6 | 4.8 | 0.00 | 0.00 | 0.00 | 64 | 1009.0 |
| 20260504175807 | 21 | 171 | 1.6 | 4.8 | 0.00 | 0.00 | 0.00 | 64 | 1009.0 |
| 20260504175703 | 21 | 171 | 3.2 | 6.4 | 0.00 | 0.00 | 0.00 | 64 | 1008.9 |
| 20260504175604 | 21 | 171 | 4.8 | 6.4 | 0.00 | 0.00 | 0.00 | 64 | 1008.9 |
| 20260504175506 | 21 | 171 | 3.2 | 6.4 | 0.00 | 0.00 | 0.00 | 64 | 1008.9 |
| 20260504175404 | 21 | 159 | 1.6 | 3.2 | 0.00 | 0.00 | 0.00 | 64 | 1008.8 |
| 20260504175304 | 21 | 163 | 1.6 | 3.2 | 0.00 | 0.00 | 0.00 | 64 | 1008.8 |
| 20260504175203 | 21 | 165 | 0.0 | 1.6 | 0.00 | 0.00 | 0.00 | 64 | 1008.7 |
| 20260504175008 | 21 | 246 | 0.0 | 0.0 | 0.00 | 0.00 | 0.00 | 64 | 1008.8 |
| 20260504174704 | 21 | 246 | 0.0 | 1.6 | 0.00 | 0.00 | 0.00 | 64 | 1008.7 |
| 20260504174604 | 21 | 246 | 0.0 | 1.6 | 0.00 | 0.00 | 0.00 | 64 | 1008.6 |
| 20260504174506 | 21 | 246 | 0.0 | 1.6 | 0.00 | 0.00 | 0.00 | 64 | 1008.7 |
| 20260504174403 | 21 | 246 | 0.0 | 1.6 | 0.00 | 0.00 | 0.00 | 64 | 1008.6 |
| 20260504174303 | 21 | 246 | 0.0 | 1.6 | 0.00 | 0.00 | 0.00 | 64 | 1008.6 |
| 20260504174203 | 21 | 246 | 0.0 | 1.6 | 0.00 | 0.00 | 0.00 | 64 | 1008.6 |
| 20260504174103 | 21 | 246 | 0.0 | 1.6 | 0.00 | 0.00 | 0.00 | 64 | 1008.6 |
| 20260504174007 | 21 | 235 | 0.0 | 0.0 | 0.00 | 0.00 | 0.00 | 64 | 1008.7 |
| 20260504173904 | 21 | 234 | 0.0 | 0.0 | 0.00 | 0.00 | 0.00 | 64 | 1008.6 |
| 20260504173804 | 21 | 234 | 0.0 | 0.0 | 0.00 | 0.00 | 0.00 | 64 | 1008.6 |
| 20260504173704 | 21 | 234 | 0.0 | 0.0 | 0.00 | 0.00 | 0.00 | 64 | 1008.6 |
| 20260504173604 | 21 | 234 | 0.0 | 0.0 | 0.00 | 0.00 | 0.00 | 64 | 1008.6 |
| 20260504173404 | 21 | 234 | 0.0 | 0.0 | 0.00 | 0.00 | 0.00 | 64 | 1008.5 |
| 20260504173204 | 21 | 227 | 0.0 | 3.2 | 0.00 | 0.00 | 0.00 | 64 | 1008.5 |
| 20260504173103 | 21 | 227 | 0.0 | 6.4 | 0.00 | 0.00 | 0.00 | 64 | 1008.6 |
| 20260504172903 | 21 | 355 | 0.0 | 6.4 | 0.00 | 0.00 | 0.00 | 64 | 1008.6 |
| 20260504172805 | 21 | 355 | 0.0 | 6.4 | 0.00 | 0.00 | 0.00 | 64 | 1008.5 |
| 20260504172703 | 22 | 355 | 0.0 | 6.4 | 0.00 | 0.00 | 0.00 | 64 | 1008.5 |
| 20260504172604 | 21 | 355 | 0.0 | 6.4 | 0.00 | 0.00 | 0.00 | 64 | 1008.6 |
| 20260504172505 | 22 | 355 | 0.0 | 6.4 | 0.00 | 0.00 | 0.00 | 64 | 1008.7 |
| 20260504172401 | 22 | 355 | 3.2 | 6.4 | 0.00 | 0.00 | 0.00 | 64 | 1008.6 |
| 20260504172304 | 22 | 360 | 3.2 | 6.4 | 0.00 | 0.00 | 0.00 | 64 | 1008.7 |
| 20260504172203 | 22 | 344 | 1.6 | 6.4 | 0.00 | 0.00 | 0.00 | 63 | 1008.7 |
| 20260504172105 | 22 | 342 | 0.0 | 6.4 | 0.00 | 0.00 | 0.00 | 63 | 1008.7 |
| 20260504172006 | 22 | 300 | 0.0 | 8.0 | 0.00 | 0.00 | 0.00 | 63 | 1008.6 |
| 20260504171905 | 22 | 300 | 0.0 | 8.0 | 0.00 | 0.00 | 0.00 | 63 | 1008.6 |
| 20260504171806 | 22 | 300 | 0.0 | 8.0 | 0.00 | 0.00 | 0.00 | 63 | 1008.7 |
| 20260504171705 | 22 | 288 | 1.6 | 8.0 | 0.00 | 0.00 | 0.00 | 63 | 1008.7 |
| 20260504171604 | 22 | 306 | 3.2 | 8.0 | 0.00 | 0.00 | 0.00 | 63 | 1008.7 |
| 20260504171510 | 22 | 281 | 3.2 | 8.0 | 0.00 | 0.00 | 0.00 | 63 | 1008.8 |
| 20260504171404 | 22 | 313 | 3.2 | 8.0 | 0.00 | 0.00 | 0.00 | 63 | 1008.8 |
| 20260504171303 | 22 | 319 | 4.8 | 8.0 | 0.00 | 0.00 | 0.00 | 63 | 1008.9 |
| 20260504171209 | 22 | 310 | 3.2 | 8.0 | 0.00 | 0.00 | 0.00 | 63 | 1008.9 |
| 20260504171104 | 22 | 304 | 3.2 | 6.4 | 0.00 | 0.00 | 0.00 | 63 | 1008.8 |
| 20260504171006 | 22 | 320 | 4.8 | 6.4 | 0.00 | 0.00 | 0.00 | 63 | 1008.8 |
| 20260504170903 | 22 | 292 | 4.8 | 6.4 | 0.00 | 0.00 | 0.00 | 63 | 1008.8 |
| 20260504170803 | 22 | 295 | 4.8 | 6.4 | 0.00 | 0.00 | 0.00 | 63 | 1008.9 |
| 20260504170702 | 22 | 278 | 3.2 | 6.4 | 0.00 | 0.00 | 0.00 | 63 | 1008.8 |
| 20260504170605 | 22 | 282 | 1.6 | 6.4 | 0.00 | 0.00 | 0.00 | 63 | 1008.8 |
| 20260504170510 | 22 | 282 | 1.6 | 6.4 | 0.00 | 0.00 | 0.00 | 63 | 1008.8 |
| 20260504170404 | 22 | 279 | 1.6 | 6.4 | 0.00 | 0.00 | 0.00 | 63 | 1008.8 |
| 20260504170304 | 22 | 263 | 1.6 | 6.4 | 0.00 | 0.00 | 0.00 | 63 | 1008.8 |
| 20260504170204 | 22 | 256 | 1.6 | 6.4 | 0.00 | 0.00 | 0.00 | 63 | 1008.9 |
| 20260504170104 | 22 | 251 | 3.2 | 6.4 | 0.00 | 0.00 | 0.00 | 62 | 1008.8 |
| 20260504160402 | 21 | 323 | 1.6 | 6.4 | 0.00 | 0.00 | 0.00 | 64 | 1008.5 |
| 20260504160302 | 21 | 340 | 1.6 | 6.4 | 0.00 | 0.00 | 0.00 | 64 | 1008.5 |
| 20260504160202 | 21 | 340 | 0.0 | 6.4 | 0.00 | 0.00 | 0.00 | 64 | 1008.4 |
| 20260504151103 | 23 | 332 | 3.2 | 12.9 | 0.00 | 0.00 | 0.00 | 57 | 1008.4 |
| 20260504151003 | 23 | 24 | 3.2 | 14.5 | 0.00 | 0.00 | 0.00 | 57 | 1008.4 |
| 20260504150903 | 23 | 5 | 3.2 | 16.1 | 0.00 | 0.00 | 0.00 | 57 | 1008.3 |
| 20260504150804 | 23 | 350 | 4.8 | 16.1 | 0.00 | 0.00 | 0.00 | 57 | 1008.3 |
| 20260504150703 | 23 | 344 | 6.4 | 16.1 | 0.00 | 0.00 | 0.00 | 56 | 1008.3 |
| 20260504150602 | 23 | 342 | 6.4 | 16.1 | 0.00 | 0.00 | 0.00 | 56 | 1008.2 |
| 20260504150506 | 23 | 355 | 6.4 | 16.1 | 0.00 | 0.00 | 0.00 | 56 | 1008.2 |
| 20260504150403 | 23 | 13 | 6.4 | 16.1 | 0.00 | 0.00 | 0.00 | 56 | 1008.2 |
| 20260504150308 | 23 | 21 | 8.0 | 16.1 | 0.00 | 0.00 | 0.00 | 55 | 1008.1 |
| 20260504150202 | 23 | 17 | 6.4 | 16.1 | 0.00 | 0.00 | 0.00 | 55 | 1008.2 |
| 20260504150103 | 23 | 55 | 4.8 | 11.3 | 0.00 | 0.00 | 0.00 | 55 | 1008.1 |
| 20260504141302 | 23 | 51 | 3.2 | 9.7 | 0.00 | 0.00 | 0.00 | 54 | 1007.6 |
| 20260504141103 | 23 | 103 | 6.4 | 9.7 | 0.00 | 0.00 | 0.00 | 54 | 1007.6 |
| 20260504141005 | 23 | 42 | 6.4 | 9.7 | 0.00 | 0.00 | 0.00 | 54 | 1007.6 |
| 20260504140908 | 23 | 46 | 6.4 | 9.7 | 0.00 | 0.00 | 0.00 | 54 | 1007.6 |
| 20260504140708 | 23 | 82 | 4.8 | 9.7 | 0.00 | 0.00 | 0.00 | 54 | 1007.5 |
| 20260504140603 | 23 | 44 | 3.2 | 8.0 | 0.00 | 0.00 | 0.00 | 54 | 1007.6 |
| 20260504140506 | 23 | 57 | 4.8 | 8.0 | 0.00 | 0.00 | 0.00 | 54 | 1007.7 |
| 20260504140303 | 23 | 51 | 3.2 | 8.0 | 0.00 | 0.00 | 0.00 | 55 | 1007.7 |
| 20260504140203 | 23 | 30 | 3.2 | 8.0 | 0.00 | 0.00 | 0.00 | 54 | 1007.6 |
| 20260504140104 | 23 | 28 | 3.2 | 8.0 | 0.00 | 0.00 | 0.00 | 54 | 1007.6 |
| 20260504130802 | 23 | 42 | 14.5 | 24.1 | 0.00 | 0.00 | 0.00 | 58 | 1008.2 |
| 20260504130702 | 23 | 31 | 14.5 | 25.7 | 0.00 | 0.00 | 0.00 | 58 | 1008.3 |
| 20260504130603 | 23 | 34 | 14.5 | 25.7 | 0.00 | 0.00 | 0.00 | 57 | 1008.3 |
| 20260504130504 | 23 | 351 | 14.5 | 27.4 | 0.00 | 0.00 | 0.00 | 57 | 1008.3 |
| 20260504130405 | 23 | 16 | 16.1 | 27.4 | 0.00 | 0.00 | 0.00 | 57 | 1008.3 |
| 20260504130302 | 23 | 5 | 14.5 | 27.4 | 0.00 | 0.00 | 0.00 | 57 | 1008.1 |
| 20260504120301 | 24 | 341 | 16.1 | 32.2 | 0.00 | 0.00 | 0.00 | 51 | 1009.2 |
| 20260504100505 | 30 | 40 | 6.4 | 12.9 | 0.00 | 0.00 | 0.00 | 46 | 1008.1 |
| 20260504100404 | 30 | 26 | 4.8 | 12.9 | 0.00 | 0.00 | 0.00 | 46 | 1008.3 |
| 20260504100302 | 30 | 27 | 6.4 | 12.9 | 0.00 | 0.00 | 0.00 | 46 | 1008.2 |
| 20260504100202 | 30 | 55 | 6.4 | 12.9 | 0.00 | 0.00 | 0.00 | 45 | 1008.2 |
| 20260504082006 | 30 | 148 | 14.5 | 29.0 | 0.00 | 0.00 | 0.00 | 50 | 1007.9 |
| 20260504081804 | 30 | 127 | 9.7 | 29.0 | 0.00 | 0.00 | 0.00 | 50 | 1008.0 |
| 20260504081703 | 29 | 110 | 9.7 | 29.0 | 0.00 | 0.00 | 0.00 | 50 | 1008.0 |
| 20260504081605 | 29 | 79 | 12.9 | 29.0 | 0.00 | 0.00 | 0.00 | 50 | 1008.0 |
| 20260504081504 | 29 | 116 | 14.5 | 29.0 | 0.00 | 0.00 | 0.00 | 50 | 1007.9 |
| 20260504081402 | 29 | 77 | 17.7 | 29.0 | 0.00 | 0.00 | 0.00 | 50 | 1007.8 |
| 20260504081302 | 29 | 71 | 17.7 | 29.0 | 0.00 | 0.00 | 0.00 | 50 | 1008.0 |
| 20260504081202 | 29 | 114 | 16.1 | 29.0 | 0.00 | 0.00 | 0.00 | 49 | 1008.0 |
| 20260504081006 | 29 | 145 | 17.7 | 33.8 | 0.00 | 0.00 | 0.00 | 49 | 1007.9 |
| 20260504080903 | 29 | 103 | 20.9 | 33.8 | 0.00 | 0.00 | 0.00 | 49 | 1007.9 |
| 20260504080803 | 29 | 136 | 17.7 | 33.8 | 0.00 | 0.00 | 0.00 | 49 | 1008.1 |
| 20260504080702 | 29 | 142 | 17.7 | 33.8 | 0.00 | 0.00 | 0.00 | 48 | 1008.0 |
| 20260504080603 | 29 | 140 | 17.7 | 33.8 | 0.00 | 0.00 | 0.00 | 48 | 1008.0 |
| 20260504080404 | 29 | 145 | 17.7 | 33.8 | 0.00 | 0.00 | 0.00 | 48 | 1008.1 |
| 20260504080302 | 29 | 142 | 20.9 | 33.8 | 0.00 | 0.00 | 0.00 | 49 | 1008.1 |
| 20260504080203 | 29 | 117 | 19.3 | 33.8 | 0.00 | 0.00 | 0.00 | 49 | 1008.2 |
| 20260504070303 | 28 | 128 | 20.9 | 32.2 | 0.00 | 0.00 | 0.00 | 50 | 1009.2 |
| 20260504070204 | 28 | 109 | 22.5 | 32.2 | 0.00 | 0.00 | 0.00 | 50 | 1009.2 |
| 20260504060203 | 28 | 123 | 20.9 | 38.6 | 0.00 | 0.00 | 0.00 | 46 | 1009.5 |
| 20260504050704 | 28 | 106 | 9.7 | 25.7 | 0.00 | 0.00 | 0.00 | 51 | 1009.6 |
| 20260504050603 | 28 | 159 | 11.3 | 25.7 | 0.00 | 0.00 | 0.00 | 52 | 1009.5 |
| 20260504050507 | 28 | 183 | 12.9 | 29.0 | 0.00 | 0.00 | 0.00 | 52 | 1009.6 |
| 20260504050404 | 28 | 131 | 12.9 | 29.0 | 0.00 | 0.00 | 0.00 | 52 | 1009.5 |
| 20260504050303 | 28 | 158 | 11.3 | 29.0 | 0.00 | 0.00 | 0.00 | 52 | 1009.5 |
| 20260504050203 | 28 | 167 | 12.9 | 29.0 | 0.00 | 0.00 | 0.00 | 53 | 1009.5 |
| 20260504050103 | 28 | 165 | 17.7 | 29.0 | 0.00 | 0.00 | 0.00 | 52 | 1009.5 |
| 20260504050009 | 28 | 168 | 17.7 | 29.0 | 0.00 | 0.00 | 0.00 | 52 | 1009.5 |
| 20260504045901 | 28 | 129 | 17.7 | 29.0 | 0.00 | 0.00 | 0.00 | 52 | 1009.5 |
| 20260504045801 | 28 | 89 | 19.3 | 29.0 | 0.00 | 0.00 | 0.00 | 52 | 1009.4 |
| 20260504045700 | 28 | 166 | 17.7 | 29.0 | 0.00 | 0.00 | 0.00 | 52 | 1009.4 |
| 20260504045601 | 28 | 150 | 12.9 | 27.4 | 0.00 | 0.00 | 0.00 | 52 | 1009.4 |
| 20260504045505 | 28 | 155 | 11.3 | 27.4 | 0.00 | 0.00 | 0.00 | 53 | 1009.4 |
| 20260504045403 | 28 | 123 | 11.3 | 27.4 | 0.00 | 0.00 | 0.00 | 53 | 1009.3 |
| 20260504045304 | 28 | 146 | 14.5 | 27.4 | 0.00 | 0.00 | 0.00 | 52 | 1009.4 |
| 20260504045201 | 28 | 159 | 16.1 | 27.4 | 0.00 | 0.00 | 0.00 | 52 | 1009.5 |
| 20260504045102 | 28 | 165 | 17.7 | 27.4 | 0.00 | 0.00 | 0.00 | 52 | 1009.5 |
| 20260504045006 | 28 | 177 | 19.3 | 24.1 | 0.00 | 0.00 | 0.00 | 52 | 1009.5 |
| 20260504044903 | 28 | 159 | 16.1 | 24.1 | 0.00 | 0.00 | 0.00 | 53 | 1009.5 |
| 20260504044504 | 27 | 201 | 9.7 | 25.7 | 0.00 | 0.00 | 0.00 | 55 | 1009.4 |
| 20260504044402 | 27 | 174 | 12.9 | 27.4 | 0.00 | 0.00 | 0.00 | 55 | 1009.4 |
| 20260504044304 | 27 | 148 | 14.5 | 27.4 | 0.00 | 0.00 | 0.00 | 54 | 1009.3 |
| 20260504044202 | 27 | 184 | 14.5 | 27.4 | 0.00 | 0.00 | 0.00 | 54 | 1009.2 |
| 20260504044103 | 27 | 199 | 12.9 | 27.4 | 0.00 | 0.00 | 0.00 | 53 | 1009.3 |
| 20260504044006 | 27 | 173 | 12.9 | 27.4 | 0.00 | 0.00 | 0.00 | 54 | 1009.3 |
| 20260504043903 | 27 | 203 | 17.7 | 27.4 | 0.00 | 0.00 | 0.00 | 54 | 1009.3 |
| 20260504043703 | 27 | 196 | 16.1 | 27.4 | 0.00 | 0.00 | 0.00 | 54 | 1009.2 |
| 20260504043602 | 27 | 136 | 14.5 | 27.4 | 0.00 | 0.00 | 0.00 | 55 | 1009.3 |
| 20260504043504 | 27 | 201 | 8.0 | 22.5 | 0.00 | 0.00 | 0.00 | 55 | 1009.1 |
| 20260504043403 | 27 | 188 | 9.7 | 22.5 | 0.00 | 0.00 | 0.00 | 55 | 1009.2 |
| 20260504043300 | 27 | 211 | 14.5 | 22.5 | 0.00 | 0.00 | 0.00 | 55 | 1009.2 |
| 20260504043202 | 27 | 160 | 16.1 | 22.5 | 0.00 | 0.00 | 0.00 | 54 | 1009.4 |
| 20260504043103 | 27 | 171 | 14.5 | 25.7 | 0.00 | 0.00 | 0.00 | 55 | 1009.3 |
| 20260504042904 | 27 | 190 | 16.1 | 25.7 | 0.00 | 0.00 | 0.00 | 54 | 1009.2 |
| 20260504042802 | 27 | 167 | 17.7 | 25.7 | 0.00 | 0.00 | 0.00 | 54 | 1009.2 |
| 20260504042703 | 27 | 159 | 17.7 | 25.7 | 0.00 | 0.00 | 0.00 | 54 | 1009.2 |
| 20260504042505 | 27 | 192 | 17.7 | 25.7 | 0.00 | 0.00 | 0.00 | 54 | 1009.2 |
| 20260504042403 | 27 | 194 | 14.5 | 25.7 | 0.00 | 0.00 | 0.00 | 55 | 1009.2 |
| 20260504042201 | 27 | 154 | 11.3 | 24.1 | 0.00 | 0.00 | 0.00 | 55 | 1009.1 |
| 20260504042102 | 27 | 156 | 14.5 | 24.1 | 0.00 | 0.00 | 0.00 | 55 | 1009.2 |
| 20260504042005 | 27 | 160 | 14.5 | 24.1 | 0.00 | 0.00 | 0.00 | 55 | 1009.1 |
| 20260504041802 | 27 | 127 | 20.9 | 30.6 | 0.00 | 0.00 | 0.00 | 55 | 1009.1 |
| 20260504041703 | 27 | 184 | 19.3 | 25.7 | 0.00 | 0.00 | 0.00 | 55 | 1009.3 |
| 20260504041603 | 27 | 178 | 19.3 | 27.4 | 0.00 | 0.00 | 0.00 | 55 | 1009.1 |
| 20260504041504 | 27 | 160 | 17.7 | 24.1 | 0.00 | 0.00 | 0.00 | 55 | 1009.2 |
| 20260504041303 | 27 | 163 | 17.7 | 22.5 | 0.00 | 0.00 | 0.00 | 56 | 1009.1 |
| 20260504041202 | 27 | 187 | 16.1 | 22.5 | 0.00 | 0.00 | 0.00 | 56 | 1009.1 |
| 20260504041006 | 27 | 186 | 14.5 | 24.1 | 0.00 | 0.00 | 0.00 | 56 | 1009.1 |
| 20260504040902 | 27 | 198 | 14.5 | 20.9 | 0.00 | 0.00 | 0.00 | 57 | 1009.0 |
| 20260504040802 | 27 | 190 | 11.3 | 17.7 | 0.00 | 0.00 | 0.00 | 57 | 1009.1 |
| 20260504040702 | 27 | 169 | 9.7 | 19.3 | 0.00 | 0.00 | 0.00 | 58 | 1009.0 |
| 20260504040602 | 27 | 178 | 12.9 | 19.3 | 0.00 | 0.00 | 0.00 | 58 | 1008.9 |
| 20260504040504 | 27 | 182 | 12.9 | 19.3 | 0.00 | 0.00 | 0.00 | 58 | 1009.1 |
| 20260504040301 | 27 | 175 | 12.9 | 19.3 | 0.00 | 0.00 | 0.00 | 59 | 1009.0 |
| 20260504040202 | 27 | 132 | 14.5 | 19.3 | 0.00 | 0.00 | 0.00 | 59 | 1009.0 |
| 20260504040103 | 27 | 155 | 14.5 | 19.3 | 0.00 | 0.00 | 0.00 | 58 | 1009.0 |
| 20260504035903 | 27 | 146 | 11.3 | 19.3 | 0.00 | 0.00 | 0.00 | 60 | 1008.9 |
| 20260504035758 | 27 | 193 | 8.0 | 19.3 | 0.00 | 0.00 | 0.00 | 60 | 1008.9 |
| 20260504035702 | 27 | 168 | 8.0 | 19.3 | 0.00 | 0.00 | 0.00 | 60 | 1009.0 |
| 20260504035503 | 27 | 166 | 9.7 | 20.9 | 0.00 | 0.00 | 0.00 | 60 | 1008.9 |
| 20260504035403 | 27 | 190 | 11.3 | 20.9 | 0.00 | 0.00 | 0.00 | 60 | 1008.9 |
| 20260504035304 | 27 | 177 | 9.7 | 20.9 | 0.00 | 0.00 | 0.00 | 61 | 1008.8 |
| 20260504035201 | 27 | 157 | 11.3 | 20.9 | 0.00 | 0.00 | 0.00 | 61 | 1008.8 |
| 20260504035103 | 27 | 159 | 9.7 | 20.9 | 0.00 | 0.00 | 0.00 | 61 | 1008.8 |
| 20260504035007 | 27 | 148 | 9.7 | 19.3 | 0.00 | 0.00 | 0.00 | 61 | 1008.8 |
| 20260504034901 | 27 | 186 | 9.7 | 19.3 | 0.00 | 0.00 | 0.00 | 62 | 1008.7 |
| 20260504034802 | 27 | 163 | 9.7 | 19.3 | 0.00 | 0.00 | 0.00 | 62 | 1008.7 |
| 20260504034702 | 27 | 88 | 9.7 | 19.3 | 0.00 | 0.00 | 0.00 | 61 | 1008.6 |
| 20260504034600 | 27 | 151 | 9.7 | 19.3 | 0.00 | 0.00 | 0.00 | 61 | 1008.7 |
| 20260504034505 | 27 | 125 | 12.9 | 19.3 | 0.00 | 0.00 | 0.00 | 61 | 1008.6 |
| 20260504034402 | 27 | 138 | 11.3 | 19.3 | 0.00 | 0.00 | 0.00 | 61 | 1008.5 |
| 20260504034301 | 27 | 117 | 11.3 | 17.7 | 0.00 | 0.00 | 0.00 | 61 | 1008.6 |
| 20260504034202 | 27 | 128 | 11.3 | 17.7 | 0.00 | 0.00 | 0.00 | 61 | 1008.6 |
| 20260504034059 | 27 | 144 | 9.7 | 14.5 | 0.00 | 0.00 | 0.00 | 61 | 1008.6 |
| 20260504033903 | 27 | 188 | 9.7 | 20.9 | 0.00 | 0.00 | 0.00 | 61 | 1008.5 |
| 20260504033801 | 27 | 136 | 9.7 | 20.9 | 0.00 | 0.00 | 0.00 | 61 | 1008.5 |
| 20260504033702 | 27 | 174 | 9.7 | 20.9 | 0.00 | 0.00 | 0.00 | 61 | 1008.5 |
| 20260504033504 | 27 | 178 | 8.0 | 20.9 | 0.00 | 0.00 | 0.00 | 61 | 1008.5 |
| 20260504033203 | 27 | 168 | 14.5 | 20.9 | 0.00 | 0.00 | 0.00 | 60 | 1008.7 |
| 20260504033103 | 27 | 171 | 12.9 | 20.9 | 0.00 | 0.00 | 0.00 | 60 | 1008.5 |
| 20260504033004 | 27 | 184 | 11.3 | 24.1 | 0.00 | 0.00 | 0.00 | 59 | 1008.5 |
| 20260504032902 | 27 | 184 | 14.5 | 24.1 | 0.00 | 0.00 | 0.00 | 60 | 1008.5 |
| 20260504032703 | 27 | 183 | 11.3 | 20.9 | 0.00 | 0.00 | 0.00 | 60 | 1008.5 |
| 20260504032602 | 27 | 169 | 9.7 | 19.3 | 0.00 | 0.00 | 0.00 | 60 | 1008.4 |
| 20260504032505 | 27 | 126 | 9.7 | 19.3 | 0.00 | 0.00 | 0.00 | 60 | 1008.4 |
| 20260504032403 | 27 | 161 | 9.7 | 19.3 | 0.00 | 0.00 | 0.00 | 60 | 1008.4 |
| 20260504032203 | 27 | 161 | 9.7 | 19.3 | 0.00 | 0.00 | 0.00 | 60 | 1008.4 |
| 20260504032102 | 26 | 188 | 9.7 | 19.3 | 0.00 | 0.00 | 0.00 | 59 | 1008.2 |
| 20260504032006 | 26 | 173 | 8.0 | 19.3 | 0.00 | 0.00 | 0.00 | 59 | 1008.2 |
| 20260504031803 | 26 | 170 | 8.0 | 14.5 | 0.00 | 0.00 | 0.00 | 59 | 1008.1 |
| 20260504031703 | 26 | 168 | 8.0 | 16.1 | 0.00 | 0.00 | 0.00 | 60 | 1008.1 |
| 20260504031600 | 26 | 202 | 8.0 | 12.9 | 0.00 | 0.00 | 0.00 | 60 | 1008.0 |
| 20260504031504 | 26 | 211 | 6.4 | 11.3 | 0.00 | 0.00 | 0.00 | 60 | 1008.1 |
| 20260504031403 | 26 | 189 | 4.8 | 9.7 | 0.00 | 0.00 | 0.00 | 61 | 1008.0 |
| 20260504031302 | 26 | 162 | 3.2 | 8.0 | 0.00 | 0.00 | 0.00 | 61 | 1008.0 |
| 20260504031202 | 26 | 148 | 1.6 | 9.7 | 0.00 | 0.00 | 0.00 | 62 | 1008.0 |
| 20260504031103 | 26 | 198 | 3.2 | 9.7 | 0.00 | 0.00 | 0.00 | 62 | 1007.9 |
| 20260504030902 | 26 | 182 | 4.8 | 16.1 | 0.00 | 0.00 | 0.00 | 61 | 1007.9 |
| 20260504030805 | 26 | 211 | 3.2 | 16.1 | 0.00 | 0.00 | 0.00 | 62 | 1007.9 |
| 20260504030703 | 26 | 204 | 3.2 | 16.1 | 0.00 | 0.00 | 0.00 | 62 | 1007.8 |
| 20260504030605 | 26 | 206 | 3.2 | 16.1 | 0.00 | 0.00 | 0.00 | 61 | 1007.8 |
| 20260504030504 | 26 | 201 | 3.2 | 16.1 | 0.00 | 0.00 | 0.00 | 61 | 1007.7 |
| 20260504030203 | 26 | 173 | 9.7 | 16.1 | 0.00 | 0.00 | 0.00 | 61 | 1007.7 |
| 20260504030007 | 26 | 140 | 3.2 | 11.3 | 0.00 | 0.00 | 0.00 | 63 | 1007.7 |
| 20260504025902 | 26 | 169 | 3.2 | 11.3 | 0.00 | 0.00 | 0.00 | 62 | 1007.7 |
| 20260504025803 | 26 | 219 | 4.8 | 11.3 | 0.00 | 0.00 | 0.00 | 63 | 1007.6 |
| 20260504025703 | 26 | 158 | 4.8 | 11.3 | 0.00 | 0.00 | 0.00 | 63 | 1007.7 |
| 20260504025603 | 26 | 188 | 6.4 | 11.3 | 0.00 | 0.00 | 0.00 | 63 | 1007.7 |
| 20260504025505 | 26 | 149 | 4.8 | 11.3 | 0.00 | 0.00 | 0.00 | 64 | 1007.6 |
| 20260504025403 | 26 | 173 | 4.8 | 8.0 | 0.00 | 0.00 | 0.00 | 64 | 1007.6 |
| 20260504025304 | 26 | 145 | 3.2 | 11.3 | 0.00 | 0.00 | 0.00 | 64 | 1007.5 |
| 20260504025200 | 26 | 180 | 3.2 | 11.3 | 0.00 | 0.00 | 0.00 | 64 | 1007.5 |
| 20260504025102 | 26 | 164 | 1.6 | 11.3 | 0.00 | 0.00 | 0.00 | 64 | 1007.5 |
| 20260504024902 | 26 | 152 | 4.8 | 11.3 | 0.00 | 0.00 | 0.00 | 64 | 1007.5 |
| 20260504024803 | 26 | 171 | 3.2 | 11.3 | 0.00 | 0.00 | 0.00 | 64 | 1007.4 |
| 20260504024602 | 26 | 147 | 6.4 | 11.3 | 0.00 | 0.00 | 0.00 | 64 | 1007.3 |
| 20260504024505 | 26 | 126 | 4.8 | 11.3 | 0.00 | 0.00 | 0.00 | 65 | 1007.4 |
| 20260504024402 | 25 | 113 | 4.8 | 12.9 | 0.00 | 0.00 | 0.00 | 65 | 1007.4 |
| 20260504024202 | 25 | 137 | 8.0 | 12.9 | 0.00 | 0.00 | 0.00 | 65 | 1007.5 |
| 20260504024006 | 25 | 134 | 4.8 | 12.9 | 0.00 | 0.00 | 0.00 | 65 | 1007.4 |
| 20260504023902 | 25 | 130 | 4.8 | 14.5 | 0.00 | 0.00 | 0.00 | 65 | 1007.4 |
| 20260504023803 | 25 | 145 | 8.0 | 14.5 | 0.00 | 0.00 | 0.00 | 65 | 1007.3 |
| 20260504023702 | 25 | 134 | 9.7 | 14.5 | 0.00 | 0.00 | 0.00 | 65 | 1007.4 |
| 20260504023506 | 25 | 152 | 6.4 | 14.5 | 0.00 | 0.00 | 0.00 | 66 | 1007.2 |
| 20260504023303 | 25 | 173 | 6.4 | 14.5 | 0.00 | 0.00 | 0.00 | 66 | 1007.2 |
| 20260504023200 | 25 | 128 | 8.0 | 14.5 | 0.00 | 0.00 | 0.00 | 66 | 1007.2 |
| 20260504022902 | 25 | 71 | 6.4 | 11.3 | 0.00 | 0.00 | 0.00 | 67 | 1007.2 |
| 20260504022803 | 25 | 128 | 6.4 | 14.5 | 0.00 | 0.00 | 0.00 | 67 | 1007.1 |
| 20260504022703 | 25 | 124 | 4.8 | 14.5 | 0.00 | 0.00 | 0.00 | 68 | 1007.1 |
| 20260504022602 | 25 | 124 | 3.2 | 14.5 | 0.00 | 0.00 | 0.00 | 68 | 1007.0 |
| 20260504022504 | 25 | 135 | 3.2 | 14.5 | 0.00 | 0.00 | 0.00 | 68 | 1007.0 |
| 20260504022403 | 25 | 141 | 3.2 | 14.5 | 0.00 | 0.00 | 0.00 | 68 | 1007.1 |
| 20260504022304 | 25 | 117 | 3.2 | 14.5 | 0.00 | 0.00 | 0.00 | 68 | 1007.0 |
| 20260504022202 | 25 | 148 | 6.4 | 16.1 | 0.00 | 0.00 | 0.00 | 68 | 1007.1 |
| 20260504022103 | 25 | 112 | 9.7 | 16.1 | 0.00 | 0.00 | 0.00 | 68 | 1007.1 |
| 20260504022008 | 25 | 148 | 11.3 | 19.3 | 0.00 | 0.00 | 0.00 | 68 | 1007.1 |
| 20260504021802 | 25 | 142 | 6.4 | 19.3 | 0.00 | 0.00 | 0.00 | 69 | 1007.1 |
| 20260504021703 | 25 | 189 | 8.0 | 19.3 | 0.00 | 0.00 | 0.00 | 69 | 1007.1 |
| 20260504021601 | 25 | 134 | 8.0 | 19.3 | 0.00 | 0.00 | 0.00 | 69 | 1007.1 |
| 20260504021503 | 25 | 128 | 8.0 | 19.3 | 0.00 | 0.00 | 0.00 | 69 | 1007.1 |
| 20260504021403 | 25 | 106 | 11.3 | 19.3 | 0.00 | 0.00 | 0.00 | 69 | 1007.1 |
| 20260504021302 | 25 | 155 | 11.3 | 19.3 | 0.00 | 0.00 | 0.00 | 70 | 1007.2 |
| 20260504021159 | 25 | 138 | 8.0 | 16.1 | 0.00 | 0.00 | 0.00 | 71 | 1007.1 |
| 20260504021103 | 25 | 136 | 6.4 | 11.3 | 0.00 | 0.00 | 0.00 | 71 | 1007.1 |
| 20260504021006 | 25 | 105 | 4.8 | 11.3 | 0.00 | 0.00 | 0.00 | 71 | 1007.0 |
| 20260504020901 | 25 | 84 | 3.2 | 9.7 | 0.00 | 0.00 | 0.00 | 72 | 1006.9 |
| 20260504020703 | 25 | 92 | 4.8 | 9.7 | 0.00 | 0.00 | 0.00 | 72 | 1006.8 |
| 20260504020505 | 25 | 113 | 3.2 | 9.7 | 0.00 | 0.00 | 0.00 | 72 | 1006.8 |
| 20260504020403 | 25 | 41 | 3.2 | 9.7 | 0.00 | 0.00 | 0.00 | 72 | 1006.8 |
| 20260504020009 | 24 | 82 | 3.2 | 6.4 | 0.00 | 0.00 | 0.00 | 72 | 1006.7 |
| 20260504015902 | 24 | 94 | 1.6 | 4.8 | 0.00 | 0.00 | 0.00 | 73 | 1006.7 |
| 20260504015702 | 24 | 84 | 1.6 | 4.8 | 0.00 | 0.00 | 0.00 | 73 | 1006.7 |
| 20260504015559 | 24 | 96 | 0.0 | 4.8 | 0.00 | 0.00 | 0.00 | 74 | 1006.6 |
| 20260504015506 | 24 | 88 | 1.6 | 4.8 | 0.00 | 0.00 | 0.00 | 74 | 1006.7 |
| 20260504015400 | 24 | 61 | 1.6 | 4.8 | 0.00 | 0.00 | 0.00 | 74 | 1006.6 |
| 20260504015304 | 24 | 161 | 1.6 | 4.8 | 0.00 | 0.00 | 0.00 | 74 | 1006.7 |
| 20260504015202 | 24 | 158 | 3.2 | 4.8 | 0.00 | 0.00 | 0.00 | 74 | 1006.7 |
| 20260504015102 | 23 | 156 | 3.2 | 4.8 | 0.00 | 0.00 | 0.00 | 74 | 1006.6 |
| 20260504015003 | 23 | 111 | 1.6 | 6.4 | 0.00 | 0.00 | 0.00 | 74 | 1006.6 |
| 20260504014903 | 23 | 282 | 0.0 | 6.4 | 0.00 | 0.00 | 0.00 | 74 | 1006.6 |
| 20260504014806 | 23 | 144 | 0.0 | 6.4 | 0.00 | 0.00 | 0.00 | 74 | 1006.6 |
| 20260504014702 | 23 | 144 | 0.0 | 6.4 | 0.00 | 0.00 | 0.00 | 74 | 1006.5 |
| 20260504014606 | 23 | 123 | 0.0 | 6.4 | 0.00 | 0.00 | 0.00 | 75 | 1006.6 |
| 20260504014504 | 23 | 134 | 0.0 | 6.4 | 0.00 | 0.00 | 0.00 | 75 | 1006.6 |
| 20260504014402 | 23 | 92 | 0.0 | 6.4 | 0.00 | 0.00 | 0.00 | 75 | 1006.6 |
| 20260504014202 | 23 | 101 | 3.2 | 6.4 | 0.00 | 0.00 | 0.00 | 75 | 1006.4 |
| 20260504014103 | 23 | 116 | 3.2 | 8.0 | 0.00 | 0.00 | 0.00 | 75 | 1006.4 |
| 20260504014006 | 23 | 125 | 3.2 | 8.0 | 0.00 | 0.00 | 0.00 | 74 | 1006.4 |
| 20260504013901 | 23 | 150 | 3.2 | 8.0 | 0.00 | 0.00 | 0.00 | 74 | 1006.4 |
| 20260504013802 | 23 | 184 | 3.2 | 8.0 | 0.00 | 0.00 | 0.00 | 74 | 1006.3 |
| 20260504013601 | 23 | 186 | 4.8 | 8.0 | 0.00 | 0.00 | 0.00 | 75 | 1006.3 |
| 20260504013505 | 23 | 152 | 3.2 | 8.0 | 0.00 | 0.00 | 0.00 | 75 | 1006.4 |
| 20260504013402 | 23 | 208 | 4.8 | 8.0 | 0.00 | 0.00 | 0.00 | 75 | 1006.3 |
| 20260504013302 | 23 | 134 | 4.8 | 9.7 | 0.00 | 0.00 | 0.00 | 75 | 1006.4 |
| 20260504013202 | 23 | 154 | 4.8 | 9.7 | 0.00 | 0.00 | 0.00 | 75 | 1006.3 |
| 20260504013103 | 23 | 100 | 3.2 | 9.7 | 0.00 | 0.00 | 0.00 | 75 | 1006.3 |
| 20260504013005 | 23 | 113 | 3.2 | 6.4 | 0.00 | 0.00 | 0.00 | 75 | 1006.3 |
| 20260504012902 | 23 | 64 | 3.2 | 6.4 | 0.00 | 0.00 | 0.00 | 75 | 1006.3 |
| 20260504012800 | 23 | 77 | 1.6 | 4.8 | 0.00 | 0.00 | 0.00 | 75 | 1006.3 |
| 20260504012701 | 23 | 106 | 1.6 | 4.8 | 0.00 | 0.00 | 0.00 | 75 | 1006.3 |
| 20260504012602 | 23 | 59 | 0.0 | 6.4 | 0.00 | 0.00 | 0.00 | 75 | 1006.3 |
| 20260504012402 | 23 | 78 | 0.0 | 6.4 | 0.00 | 0.00 | 0.00 | 75 | 1006.3 |
| 20260504012304 | 23 | 101 | 1.6 | 6.4 | 0.00 | 0.00 | 0.00 | 75 | 1006.2 |
| 20260504012202 | 23 | 122 | 3.2 | 6.4 | 0.00 | 0.00 | 0.00 | 75 | 1006.3 |
| 20260504012103 | 23 | 86 | 3.2 | 6.4 | 0.00 | 0.00 | 0.00 | 75 | 1006.2 |
| 20260504012006 | 23 | 112 | 3.2 | 6.4 | 0.00 | 0.00 | 0.00 | 75 | 1006.2 |
| 20260504011903 | 23 | 98 | 3.2 | 6.4 | 0.00 | 0.00 | 0.00 | 75 | 1006.1 |
| 20260504011800 | 23 | 78 | 3.2 | 6.4 | 0.00 | 0.00 | 0.00 | 75 | 1006.1 |
| 20260504011701 | 23 | 73 | 3.2 | 6.4 | 0.00 | 0.00 | 0.00 | 76 | 1006.2 |
| 20260504011600 | 23 | 102 | 3.2 | 6.4 | 0.00 | 0.00 | 0.00 | 76 | 1006.1 |
| 20260504011402 | 23 | 128 | 0.0 | 3.2 | 0.00 | 0.00 | 0.00 | 76 | 1006.1 |
| 20260504011302 | 23 | 78 | 0.0 | 1.6 | 0.00 | 0.00 | 0.00 | 76 | 1006.0 |
| 20260504011204 | 23 | 78 | 0.0 | 3.2 | 0.00 | 0.00 | 0.00 | 76 | 1006.1 |
| 20260504011102 | 23 | 78 | 0.0 | 4.8 | 0.00 | 0.00 | 0.00 | 76 | 1006.0 |
| 20260504011006 | 23 | 127 | 0.0 | 6.4 | 0.00 | 0.00 | 0.00 | 76 | 1006.1 |
| 20260504010903 | 23 | 124 | 0.0 | 6.4 | 0.00 | 0.00 | 0.00 | 76 | 1005.9 |
| 20260504010802 | 23 | 124 | 0.0 | 6.4 | 0.00 | 0.00 | 0.00 | 76 | 1006.0 |
| 20260504010702 | 23 | 90 | 0.0 | 6.4 | 0.00 | 0.00 | 0.00 | 76 | 1006.0 |
| 20260504010602 | 23 | 105 | 0.0 | 6.4 | 0.00 | 0.00 | 0.00 | 76 | 1005.9 |
| 20260504010505 | 23 | 106 | 1.6 | 6.4 | 0.00 | 0.00 | 0.00 | 76 | 1005.9 |
| 20260504010402 | 23 | 121 | 3.2 | 6.4 | 0.00 | 0.00 | 0.00 | 76 | 1005.9 |
| 20260504010303 | 23 | 141 | 4.8 | 6.4 | 0.00 | 0.00 | 0.00 | 76 | 1005.9 |
| 20260504010203 | 22 | 142 | 4.8 | 6.4 | 0.00 | 0.00 | 0.00 | 76 | 1005.9 |
| 20260504005901 | 22 | 27 | 0.0 | 6.4 | 0.00 | 0.00 | 0.00 | 76 | 1005.8 |
| 20260504005802 | 22 | 108 | 0.0 | 6.4 | 0.00 | 0.00 | 0.00 | 76 | 1005.9 |
| 20260504005603 | 22 | 59 | 0.0 | 6.4 | 0.00 | 0.00 | 0.00 | 77 | 1005.8 |
| 20260504005503 | 22 | 74 | 1.6 | 6.4 | 0.00 | 0.00 | 0.00 | 77 | 1005.8 |
| 20260504005401 | 22 | 79 | 3.2 | 6.4 | 0.00 | 0.00 | 0.00 | 77 | 1005.8 |
| 20260504005304 | 22 | 95 | 3.2 | 6.4 | 0.00 | 0.00 | 0.00 | 77 | 1005.8 |
| 20260504005202 | 22 | 117 | 4.8 | 6.4 | 0.00 | 0.00 | 0.00 | 77 | 1005.8 |
| 20260504005004 | 22 | 108 | 1.6 | 4.8 | 0.00 | 0.00 | 0.00 | 77 | 1005.7 |
| 20260504004901 | 22 | 87 | 1.6 | 4.8 | 0.00 | 0.00 | 0.00 | 77 | 1005.7 |
| 20260504004801 | 22 | 88 | 1.6 | 4.8 | 0.00 | 0.00 | 0.00 | 77 | 1005.7 |
| 20260504004700 | 22 | 76 | 1.6 | 4.8 | 0.00 | 0.00 | 0.00 | 77 | 1005.7 |
| 20260504004602 | 22 | 155 | 1.6 | 4.8 | 0.00 | 0.00 | 0.00 | 77 | 1005.7 |
| 20260504004403 | 22 | 147 | 3.2 | 9.7 | 0.00 | 0.00 | 0.00 | 77 | 1005.7 |
| 20260504004204 | 22 | 30 | 1.6 | 9.7 | 0.00 | 0.00 | 0.00 | 77 | 1005.5 |
| 20260504004004 | 22 | 81 | 1.6 | 9.7 | 0.00 | 0.00 | 0.00 | 77 | 1005.4 |
| 20260504003901 | 22 | 62 | 1.6 | 9.7 | 0.00 | 0.00 | 0.00 | 77 | 1005.5 |
| 20260504003800 | 22 | 142 | 3.2 | 9.7 | 0.00 | 0.00 | 0.00 | 77 | 1005.5 |
| 20260504003702 | 22 | 124 | 4.8 | 9.7 | 0.00 | 0.00 | 0.00 | 77 | 1005.5 |
| 20260504003602 | 22 | 82 | 3.2 | 6.4 | 0.00 | 0.00 | 0.00 | 77 | 1005.4 |
| 20260504003402 | 22 | 59 | 1.6 | 4.8 | 0.00 | 0.00 | 0.00 | 76 | 1005.3 |
| 20260504003102 | 22 | 61 | 1.6 | 3.2 | 0.00 | 0.00 | 0.00 | 76 | 1005.2 |
| 20260504003007 | 22 | 169 | 1.6 | 3.2 | 0.00 | 0.00 | 0.00 | 76 | 1005.2 |
| 20260504002903 | 22 | 101 | 1.6 | 6.4 | 0.00 | 0.00 | 0.00 | 76 | 1005.2 |
| 20260504002802 | 22 | 155 | 0.0 | 6.4 | 0.00 | 0.00 | 0.00 | 76 | 1005.2 |
| 20260504002702 | 22 | 317 | 0.0 | 6.4 | 0.00 | 0.00 | 0.00 | 76 | 1005.1 |
| 20260504002601 | 22 | 317 | 0.0 | 6.4 | 0.00 | 0.00 | 0.00 | 76 | 1005.1 |
| 20260504002505 | 22 | 311 | 0.0 | 6.4 | 0.00 | 0.00 | 0.00 | 76 | 1005.1 |
| 20260504002402 | 22 | 319 | 0.0 | 6.4 | 0.00 | 0.00 | 0.00 | 76 | 1005.1 |
| 20260504002303 | 22 | 319 | 1.6 | 6.4 | 0.00 | 0.00 | 0.00 | 76 | 1005.0 |
| 20260504002104 | 22 | 360 | 3.2 | 6.4 | 0.00 | 0.00 | 0.00 | 75 | 1004.9 |
| 20260504002003 | 22 | 360 | 4.8 | 6.4 | 0.00 | 0.00 | 0.00 | 75 | 1005.0 |
| 20260504001902 | 22 | 360 | 4.8 | 6.4 | 0.00 | 0.00 | 0.00 | 75 | 1004.9 |
| 20260504001803 | 23 | 360 | 3.2 | 6.4 | 0.00 | 0.00 | 0.00 | 75 | 1005.0 |
| 20260504001702 | 23 | 321 | 1.6 | 6.4 | 0.00 | 0.00 | 0.00 | 75 | 1005.0 |
| 20260504001600 | 23 | 321 | 1.6 | 6.4 | 0.00 | 0.00 | 0.00 | 75 | 1005.0 |
| 20260504001505 | 23 | 331 | 1.6 | 6.4 | 0.00 | 0.00 | 0.00 | 75 | 1005.0 |
| 20260504001403 | 23 | 337 | 1.6 | 6.4 | 0.00 | 0.00 | 0.00 | 75 | 1004.9 |
| 20260504001302 | 23 | 337 | 1.6 | 6.4 | 0.00 | 0.00 | 0.00 | 75 | 1005.0 |
| 20260504001104 | 23 | 19 | 3.2 | 6.4 | 0.00 | 0.00 | 0.00 | 74 | 1004.9 |
| 20260504001007 | 23 | 15 | 4.8 | 6.4 | 0.00 | 0.00 | 0.00 | 74 | 1004.9 |
| 20260504000903 | 23 | 20 | 3.2 | 6.4 | 0.00 | 0.00 | 0.00 | 74 | 1004.8 |
| 20260504000802 | 23 | 17 | 1.6 | 4.8 | 0.00 | 0.00 | 0.00 | 74 | 1004.8 |
| 20260504000701 | 23 | 12 | 3.2 | 4.8 | 0.00 | 0.00 | 0.00 | 74 | 1004.6 |
| 20260504000602 | 23 | 348 | 3.2 | 4.8 | 0.00 | 0.00 | 0.00 | 74 | 1004.7 |
| 20260504000505 | 23 | 355 | 1.6 | 3.2 | 0.00 | 0.00 | 0.00 | 74 | 1004.6 |
| 20260504000404 | 23 | 349 | 1.6 | 3.2 | 0.00 | 0.00 | 0.00 | 74 | 1004.6 |
| 20260504000303 | 23 | 349 | 0.0 | 1.6 | 0.00 | 0.00 | 0.00 | 74 | 1004.6 |
| 20260503235901 | 23 | 317 | 0.0 | 1.6 | 0.00 | 0.23 | 0.00 | 73 | 1004.3 |
| 20260503235802 | 23 | 317 | 0.0 | 1.6 | 0.00 | 0.23 | 0.00 | 73 | 1004.3 |
| 20260503235701 | 23 | 317 | 0.0 | 1.6 | 0.00 | 0.23 | 0.00 | 73 | 1004.3 |
| 20260503235601 | 23 | 317 | 0.0 | 1.6 | 0.00 | 0.23 | 0.00 | 73 | 1004.2 |
| 20260503235503 | 23 | 317 | 0.0 | 1.6 | 0.00 | 0.23 | 0.00 | 73 | 1004.2 |
| 20260503235401 | 23 | 194 | 0.0 | 0.0 | 0.00 | 0.23 | 0.00 | 73 | 1004.2 |
| 20260503235301 | 23 | 194 | 0.0 | 1.6 | 0.00 | 0.23 | 0.00 | 73 | 1004.1 |
| 20260503235201 | 23 | 194 | 0.0 | 1.6 | 0.00 | 0.23 | 0.00 | 73 | 1004.2 |
| 20260503235058 | 23 | 194 | 0.0 | 1.6 | 0.00 | 0.23 | 0.00 | 73 | 1004.1 |
| 20260503235006 | 23 | 194 | 0.0 | 1.6 | 0.00 | 0.23 | 0.00 | 73 | 1004.2 |
| 20260503234901 | 23 | 194 | 0.0 | 1.6 | 0.00 | 0.23 | 0.00 | 73 | 1004.1 |
| 20260503234800 | 23 | 194 | 0.0 | 1.6 | 0.00 | 0.23 | 0.00 | 73 | 1004.0 |
| 20260503234701 | 23 | 194 | 0.0 | 1.6 | 0.00 | 0.23 | 0.00 | 73 | 1004.1 |
| 20260503234601 | 23 | 194 | 0.0 | 1.6 | 0.00 | 0.23 | 0.00 | 73 | 1004.0 |
| 20260503234503 | 23 | 194 | 0.0 | 1.6 | 0.00 | 0.23 | 0.00 | 73 | 1004.0 |
| 20260503234401 | 23 | 195 | 0.0 | 0.0 | 0.00 | 0.23 | 0.00 | 73 | 1003.9 |
| 20260503234300 | 23 | 195 | 0.0 | 0.0 | 0.00 | 0.23 | 0.00 | 73 | 1004.0 |
| 20260503234101 | 23 | 195 | 0.0 | 0.0 | 0.00 | 0.23 | 0.00 | 73 | 1004.0 |
| 20260503234007 | 23 | 195 | 0.0 | 0.0 | 0.00 | 0.23 | 0.00 | 73 | 1003.9 |
| 20260503233701 | 23 | 195 | 0.0 | 0.0 | 0.00 | 0.23 | 0.00 | 73 | 1003.9 |
| 20260503233601 | 23 | 195 | 0.0 | 0.0 | 0.00 | 0.23 | 0.00 | 73 | 1003.9 |
| 20260503233503 | 23 | 195 | 0.0 | 0.0 | 0.00 | 0.23 | 0.00 | 73 | 1003.9 |
| 20260503233401 | 23 | 195 | 0.0 | 0.0 | 0.00 | 0.23 | 0.00 | 73 | 1003.8 |
| 20260503233201 | 23 | 195 | 0.0 | 1.6 | 0.00 | 0.23 | 0.00 | 73 | 1003.9 |
| 20260503233100 | 23 | 195 | 0.0 | 3.2 | 0.00 | 0.23 | 0.00 | 73 | 1003.9 |
| 20260503233005 | 23 | 195 | 0.0 | 3.2 | 0.00 | 0.23 | 0.00 | 73 | 1003.8 |
| 20260503232904 | 23 | 195 | 0.0 | 3.2 | 0.00 | 0.23 | 0.00 | 73 | 1003.8 |
| 20260503232801 | 23 | 195 | 0.0 | 3.2 | 0.00 | 0.23 | 0.00 | 73 | 1003.8 |
| 20260503232702 | 23 | 195 | 0.0 | 3.2 | 0.00 | 0.23 | 0.00 | 73 | 1003.9 |
| 20260503232503 | 23 | 195 | 0.0 | 3.2 | 0.00 | 0.23 | 0.00 | 73 | 1003.7 |
| 20260503232358 | 23 | 195 | 1.6 | 3.2 | 0.00 | 0.23 | 0.00 | 73 | 1003.8 |
| 20260503232305 | 23 | 195 | 1.6 | 3.2 | 0.00 | 0.23 | 0.00 | 72 | 1003.7 |
| 20260503232200 | 23 | 195 | 1.6 | 3.2 | 0.00 | 0.23 | 0.00 | 72 | 1003.8 |
| 20260503232100 | 23 | 195 | 1.6 | 3.2 | 0.00 | 0.23 | 0.00 | 72 | 1003.7 |
| 20260503232003 | 23 | 195 | 0.0 | 1.6 | 0.00 | 0.23 | 0.00 | 72 | 1003.8 |
| 20260503231900 | 23 | 195 | 0.0 | 1.6 | 0.00 | 0.23 | 0.00 | 72 | 1003.6 |
| 20260503231801 | 23 | 195 | 0.0 | 3.2 | 0.00 | 0.23 | 0.00 | 72 | 1003.7 |
| 20260503231701 | 23 | 195 | 0.0 | 4.8 | 0.00 | 0.23 | 0.00 | 73 | 1003.7 |
| 20260503231604 | 23 | 195 | 0.0 | 4.8 | 0.00 | 0.23 | 0.00 | 73 | 1003.6 |
| 20260503231504 | 23 | 195 | 0.0 | 4.8 | 0.00 | 0.23 | 0.00 | 73 | 1003.7 |
| 20260503231401 | 23 | 195 | 0.0 | 4.8 | 0.00 | 0.23 | 0.00 | 73 | 1003.8 |
| 20260503231301 | 23 | 195 | 0.0 | 4.8 | 0.00 | 0.23 | 0.00 | 73 | 1003.8 |
| 20260503231201 | 23 | 195 | 0.0 | 4.8 | 0.00 | 0.23 | 0.00 | 73 | 1003.8 |
| 20260503231100 | 23 | 195 | 0.0 | 4.8 | 0.00 | 0.23 | 0.00 | 73 | 1003.9 |
| 20260503231006 | 23 | 195 | 1.6 | 4.8 | 0.00 | 0.23 | 0.00 | 73 | 1003.9 |
| 20260503230900 | 23 | 205 | 1.6 | 4.8 | 0.00 | 0.23 | 0.00 | 73 | 1003.9 |
| 20260503230602 | 23 | 200 | 0.0 | 0.0 | 0.00 | 0.23 | 0.00 | 73 | 1003.9 |
| 20260503230504 | 23 | 166 | 0.0 | 0.0 | 0.00 | 0.23 | 0.00 | 73 | 1003.9 |
| 20260503230402 | 23 | 166 | 0.0 | 0.0 | 0.00 | 0.23 | 0.00 | 73 | 1003.9 |
| 20260503230301 | 23 | 166 | 0.0 | 0.0 | 0.00 | 0.23 | 0.00 | 73 | 1003.9 |
| 20260503230200 | 23 | 166 | 0.0 | 0.0 | 0.00 | 0.23 | 0.00 | 73 | 1003.8 |
| 20260503230104 | 23 | 166 | 0.0 | 0.0 | 0.00 | 0.23 | 0.00 | 73 | 1003.9 |
| 20260503225801 | 23 | 166 | 0.0 | 0.0 | 0.00 | 0.23 | 0.00 | 73 | 1003.9 |
| 20260503225600 | 23 | 166 | 0.0 | 0.0 | 0.00 | 0.23 | 0.00 | 73 | 1003.9 |
| 20260503225503 | 23 | 166 | 0.0 | 0.0 | 0.00 | 0.23 | 0.00 | 73 | 1003.9 |
| 20260503225401 | 23 | 166 | 0.0 | 0.0 | 0.00 | 0.23 | 0.00 | 73 | 1003.9 |
| 20260503225201 | 23 | 166 | 0.0 | 0.0 | 0.00 | 0.23 | 0.00 | 73 | 1004.0 |
| 20260503225101 | 23 | 166 | 0.0 | 0.0 | 0.00 | 0.23 | 0.00 | 73 | 1004.0 |
| 20260503224900 | 23 | 166 | 0.0 | 0.0 | 0.00 | 0.23 | 0.00 | 73 | 1003.9 |
| 20260503224801 | 23 | 166 | 0.0 | 0.0 | 0.00 | 0.23 | 0.00 | 73 | 1003.9 |
| 20260503224700 | 23 | 166 | 0.0 | 0.0 | 0.00 | 0.23 | 0.00 | 73 | 1003.9 |
| 20260503224602 | 23 | 166 | 0.0 | 0.0 | 0.00 | 0.23 | 0.00 | 73 | 1003.9 |
| 20260503224503 | 23 | 173 | 0.0 | 0.0 | 0.00 | 0.23 | 0.00 | 73 | 1003.9 |
| 20260503224402 | 23 | 173 | 0.0 | 0.0 | 0.00 | 0.23 | 0.00 | 73 | 1003.9 |
| 20260503224304 | 23 | 171 | 0.0 | 0.0 | 0.00 | 0.23 | 0.00 | 73 | 1003.9 |
| 20260503224201 | 23 | 160 | 0.0 | 0.0 | 0.00 | 0.23 | 0.00 | 73 | 1003.9 |
| 20260503224102 | 23 | 176 | 0.0 | 0.0 | 0.00 | 0.23 | 0.00 | 73 | 1003.9 |
| 20260503224005 | 23 | 197 | 0.0 | 0.0 | 0.00 | 0.23 | 0.00 | 73 | 1003.9 |
| 20260503223901 | 23 | 198 | 0.0 | 0.0 | 0.00 | 0.23 | 0.00 | 73 | 1003.8 |
| 20260503223801 | 23 | 198 | 0.0 | 0.0 | 0.00 | 0.23 | 0.00 | 73 | 1003.9 |
| 20260503223700 | 23 | 198 | 0.0 | 0.0 | 0.00 | 0.23 | 0.00 | 73 | 1003.9 |
| 20260503223503 | 23 | 198 | 0.0 | 0.0 | 0.00 | 0.23 | 0.00 | 73 | 1003.9 |
| 20260503223401 | 23 | 198 | 0.0 | 0.0 | 0.00 | 0.23 | 0.00 | 73 | 1003.9 |
| 20260503223301 | 23 | 198 | 0.0 | 0.0 | 0.00 | 0.23 | 0.00 | 73 | 1003.9 |
| 20260503223201 | 23 | 198 | 0.0 | 0.0 | 0.00 | 0.23 | 0.00 | 73 | 1003.8 |
| 20260503223103 | 23 | 198 | 0.0 | 0.0 | 0.00 | 0.23 | 0.00 | 73 | 1003.9 |
| 20260503223004 | 23 | 198 | 0.0 | 0.0 | 0.00 | 0.23 | 0.00 | 73 | 1003.8 |
| 20260503222800 | 23 | 198 | 0.0 | 0.0 | 0.00 | 0.23 | 0.00 | 73 | 1003.9 |
| 20260503222701 | 23 | 198 | 0.0 | 0.0 | 0.00 | 0.23 | 0.00 | 73 | 1003.9 |
| 20260503222503 | 23 | 198 | 0.0 | 3.2 | 0.00 | 0.23 | 0.00 | 73 | 1003.9 |
| 20260503222304 | 23 | 198 | 0.0 | 3.2 | 0.00 | 0.23 | 0.00 | 73 | 1004.0 |
| 20260503222202 | 23 | 198 | 0.0 | 3.2 | 0.00 | 0.23 | 0.00 | 73 | 1003.9 |
| 20260503222100 | 23 | 186 | 0.0 | 3.2 | 0.00 | 0.23 | 0.00 | 73 | 1003.9 |
| 20260503222003 | 23 | 186 | 0.0 | 3.2 | 0.00 | 0.23 | 0.00 | 73 | 1003.9 |
| 20260503221902 | 23 | 194 | 0.0 | 3.2 | 0.00 | 0.23 | 0.00 | 73 | 1004.0 |
| 20260503221800 | 23 | 194 | 0.0 | 3.2 | 0.00 | 0.23 | 0.00 | 73 | 1003.9 |
| 20260503221702 | 23 | 190 | 1.6 | 3.2 | 0.00 | 0.23 | 0.00 | 73 | 1003.9 |
| 20260503221600 | 23 | 165 | 1.6 | 3.2 | 0.00 | 0.23 | 0.00 | 73 | 1004.0 |
| 20260503221402 | 23 | 156 | 0.0 | 1.6 | 0.00 | 0.23 | 0.00 | 73 | 1003.9 |
| 20260503221300 | 23 | 156 | 0.0 | 1.6 | 0.00 | 0.23 | 0.00 | 73 | 1003.9 |
| 20260503221202 | 23 | 156 | 0.0 | 1.6 | 0.00 | 0.23 | 0.00 | 73 | 1003.9 |
| 20260503221006 | 23 | 157 | 0.0 | 1.6 | 0.00 | 0.23 | 0.00 | 73 | 1003.9 |
| 20260503220900 | 23 | 161 | 0.0 | 1.6 | 0.00 | 0.23 | 0.00 | 73 | 1003.9 |
| 20260503220802 | 23 | 166 | 0.0 | 1.6 | 0.00 | 0.23 | 0.00 | 73 | 1003.9 |
| 20260503220700 | 23 | 172 | 0.0 | 3.2 | 0.00 | 0.23 | 0.00 | 73 | 1003.9 |
| 20260503220401 | 23 | 180 | 0.0 | 4.8 | 0.00 | 0.23 | 0.00 | 73 | 1003.9 |
| 20260503220302 | 23 | 201 | 0.0 | 4.8 | 0.00 | 0.23 | 0.00 | 73 | 1003.9 |
| 20260503220200 | 23 | 173 | 0.0 | 8.0 | 0.00 | 0.23 | 0.00 | 73 | 1003.9 |
| 20260503220100 | 23 | 177 | 0.0 | 8.0 | 0.00 | 0.23 | 0.00 | 73 | 1003.9 |
| 20260503220006 | 23 | 195 | 0.0 | 8.0 | 0.00 | 0.23 | 0.00 | 73 | 1003.9 |
| 20260503215901 | 23 | 194 | 1.6 | 8.0 | 0.00 | 0.23 | 0.00 | 73 | 1003.9 |
| 20260503215800 | 23 | 191 | 1.6 | 8.0 | 0.00 | 0.23 | 0.00 | 73 | 1003.9 |
| 20260503215602 | 23 | 181 | 3.2 | 8.0 | 0.00 | 0.23 | 0.00 | 73 | 1003.9 |